EW4427 Weather Reports


Display with metric or nautical units.
time (UTC)temp
F
wind
direction
speed
MPH
gust
MPH
rain 1hr
in
rain 24hr
in
rain mn
in
humidity
%
barometer
mb
20260504231042 75 221 7.0 18.0 0.00 0.00 0.00 35 996.0
20260504230549 75 211 1.0 5.0 0.00 0.00 0.00 39 995.8
20260504230122 75 208 1.0 5.0 0.00 0.00 0.00 37 995.8
20260504225548 76 213 0.0 7.0 0.00 0.00 0.00 37 995.7
20260504225046 76 211 2.0 9.0 0.00 0.00 0.00 37 995.8
20260504224550 76 0 1.0 9.0 0.00 0.00 0.00 36 995.8
20260504224047 76 209 3.0 9.0 0.00 0.00 0.00 36 995.9
20260504223551 76 249 3.0 8.0 0.00 0.00 0.00 35 995.9
20260504223100 76 238 3.0 8.0 0.00 0.00 0.00 37 995.8
20260504222547 77 209 1.0 7.0 0.00 0.00 0.00 34 995.8
20260504222044 77 0 1.0 7.0 0.00 0.00 0.00 35 995.9
20260504221603 77 214 3.0 8.0 0.00 0.00 0.00 35 996.0
20260504221046 77 219 3.0 8.0 0.00 0.00 0.00 36 996.0
20260504220546 76 209 2.0 8.0 0.00 0.00 0.00 36 996.1
20260504220057 77 215 1.0 4.0 0.00 0.00 0.00 34 996.1
20260504215546 77 0 0.0 10.0 0.00 0.00 0.00 35 996.1
20260504215047 76 0 2.0 13.0 0.00 0.00 0.00 35 996.2
20260504214600 76 208 5.0 13.0 0.00 0.00 0.00 32 996.2
20260504214046 77 220 3.0 17.0 0.00 0.00 0.00 36 996.3
20260504213547 77 259 4.0 17.0 0.00 0.00 0.00 34 996.2
20260504213103 77 208 4.0 15.0 0.00 0.00 0.00 33 996.2
20260504212547 77 220 4.0 15.0 0.00 0.00 0.00 33 996.3
20260504212046 78 221 3.0 14.0 0.00 0.00 0.00 33 996.4
20260504211551 78 182 3.0 14.0 0.00 0.00 0.00 34 996.3
20260504211047 78 233 2.0 9.0 0.00 0.00 0.00 35 996.4
20260504210545 77 227 5.0 9.0 0.00 0.00 0.00 36 996.6
20260504210054 78 183 2.0 9.0 0.00 0.00 0.00 33 996.6
20260504205548 78 0 2.0 9.0 0.00 0.00 0.00 34 996.7
20260504205046 78 187 4.0 9.0 0.00 0.00 0.00 32 996.7
20260504204559 79 217 3.0 10.0 0.00 0.00 0.00 33 996.7
20260504204048 79 257 2.0 12.0 0.00 0.00 0.00 33 996.7
20260504203548 78 227 5.0 17.0 0.00 0.00 0.00 34 996.9
20260504203054 78 229 7.0 17.0 0.00 0.00 0.00 34 996.8
20260504202548 79 221 4.0 12.0 0.00 0.00 0.00 32 997.0
20260504202046 79 216 5.0 11.0 0.00 0.00 0.00 30 997.0
20260504201554 79 234 3.0 10.0 0.00 0.00 0.00 34 997.0
20260504201047 80 223 2.0 8.0 0.00 0.00 0.00 32 997.3
20260504200546 79 257 3.0 9.0 0.00 0.00 0.00 32 997.3
20260504200052 78 194 3.0 12.0 0.00 0.00 0.00 31 997.2
20260504195546 77 209 4.0 12.0 0.00 0.00 0.00 33 997.2
20260504195047 78 199 5.0 12.0 0.00 0.00 0.00 33 997.2
20260504194556 78 215 6.0 14.0 0.00 0.00 0.00 35 997.4
20260504194047 78 249 4.0 14.0 0.00 0.00 0.00 32 997.4
20260504193548 78 215 5.0 16.0 0.00 0.00 0.00 32 997.4
20260504193050 78 248 6.0 16.0 0.00 0.00 0.00 34 997.4
20260504192546 77 199 7.0 16.0 0.00 0.00 0.00 32 997.4
20260504192047 77 184 4.0 12.0 0.00 0.00 0.00 32 997.5
20260504191601 78 271 4.0 11.0 0.00 0.00 0.00 30 997.5
20260504191044 77 262 4.0 14.0 0.00 0.00 0.00 32 997.6
20260504190544 76 204 7.0 14.0 0.00 0.00 0.00 35 997.5
20260504190050 77 211 7.0 14.0 0.00 0.00 0.00 30 997.5
20260504185543 78 209 5.0 15.0 0.00 0.00 0.00 32 997.7
20260504185042 77 252 4.0 15.0 0.00 0.00 0.00 35 997.6
20260504184550 76 259 7.0 15.0 0.00 0.00 0.00 36 997.8
20260504184044 77 224 7.0 15.0 0.00 0.00 0.00 31 997.8
20260504183546 77 232 4.0 13.0 0.00 0.00 0.00 35 997.9
20260504183053 77 264 4.0 10.0 0.00 0.00 0.00 35 998.0
20260504182545 76 192 3.0 10.0 0.00 0.00 0.00 35 998.0
20260504182047 76 217 5.0 15.0 0.00 0.00 0.00 37 998.0
20260504181552 76 208 4.0 15.0 0.00 0.00 0.00 36 998.1
20260504181045 75 231 5.0 11.0 0.00 0.00 0.00 33 998.2
20260504180547 75 208 6.0 18.0 0.00 0.00 0.00 35 998.1
20260504180055 75 211 5.0 18.0 0.00 0.00 0.00 35 998.2
20260504175548 75 204 5.0 13.0 0.00 0.00 0.00 34 998.1
20260504175048 75 217 5.0 18.0 0.00 0.00 0.00 34 998.3
20260504174550 75 245 5.0 18.0 0.00 0.00 0.00 37 998.3
20260504174043 75 214 3.0 14.0 0.00 0.00 0.00 34 998.4
20260504173545 74 263 6.0 15.0 0.00 0.00 0.00 37 998.6
20260504173052 74 184 7.0 15.0 0.00 0.00 0.00 37 998.6
20260504172542 75 191 4.0 13.0 0.00 0.00 0.00 35 998.7
20260504172048 74 188 5.0 13.0 0.00 0.00 0.00 34 998.9
20260504171558 73 198 5.0 14.0 0.00 0.00 0.00 39 998.9
20260504171044 73 212 8.0 16.0 0.00 0.00 0.00 36 999.0
20260504170548 73 203 5.0 16.0 0.00 0.00 0.00 35 998.9
20260504151048 70 217 5.0 11.0 0.00 0.00 0.00 38 1000.5
20260504150547 69 237 5.0 13.0 0.00 0.00 0.00 37 1000.5
20260504150108 68 194 7.0 13.0 0.00 0.00 0.00 42 1000.4
20260504141045 63 231 4.0 10.0 0.00 0.00 0.00 51 1000.9
20260504140545 63 190 5.0 10.0 0.00 0.00 0.00 52 1001.0
20260504130543 57 211 3.0 7.0 0.00 0.00 0.00 65 1001.6
20260504110545 46 209 1.0 4.0 0.00 0.00 0.00 89 1001.7
20260504100540 46 0 0.0 0.0 0.00 0.00 0.00 87 1001.8
20260504081554 50 0 0.0 0.0 0.00 0.00 0.00 76 1002.7
20260504081041 50 0 0.0 0.0 0.00 0.00 0.00 76 1002.8
20260504080543 50 0 0.0 1.0 0.00 0.00 0.00 76 1002.6
20260504080109 50 0 0.0 1.0 0.00 0.00 0.00 77 1002.7
20260504050546 54 0 0.0 0.0 0.00 0.00 0.00 72 1004.0
20260504045544 55 0 0.0 0.0 0.00 0.00 0.00 70 1004.0
20260504045047 55 0 0.0 0.0 0.00 0.00 0.00 69 1004.1
20260504044552 55 0 0.0 0.0 0.00 0.00 0.00 68 1004.2
20260504044048 55 0 0.0 2.0 0.00 0.00 0.00 67 1004.0
20260504043547 56 0 0.0 3.0 0.00 0.00 0.00 68 1004.1
20260504043051 56 0 0.0 3.0 0.00 0.00 0.00 67 1003.9
20260504042546 56 211 1.0 3.0 0.00 0.00 0.00 68 1004.0
20260504042045 56 213 1.0 3.0 0.00 0.00 0.00 68 1004.0
20260504041549 56 0 1.0 2.0 0.00 0.00 0.00 68 1004.0
20260504041046 56 0 0.0 2.0 0.00 0.00 0.00 68 1004.0
20260504040549 55 0 0.0 2.0 0.00 0.00 0.00 68 1004.0
20260504040114 55 213 0.0 2.0 0.00 0.00 0.00 70 1004.3
20260504035545 54 0 0.0 2.0 0.00 0.00 0.00 73 1004.1
20260504035042 54 0 0.0 0.0 0.00 0.00 0.00 78 1004.2
20260504034550 55 0 0.0 0.0 0.00 0.00 0.00 76 1004.2
20260504034042 55 0 0.0 0.0 0.00 0.00 0.00 77 1004.2
20260504033542 55 0 0.0 0.0 0.00 0.00 0.00 74 1004.2
20260504033050 55 0 0.0 0.0 0.00 0.00 0.00 72 1004.3
20260504032541 56 0 0.0 0.0 0.00 0.00 0.00 75 1004.3
20260504032042 56 0 0.0 0.0 0.00 0.00 0.00 72 1004.3
20260504031556 57 0 0.0 2.0 0.00 0.00 0.00 72 1004.4
20260504031041 57 0 0.0 2.0 0.00 0.00 0.00 72 1004.4
20260504030544 57 0 0.0 2.0 0.00 0.00 0.00 71 1004.3
20260504030054 56 0 0.0 3.0 0.00 0.00 0.00 72 1004.3
20260504025544 55 210 1.0 3.0 0.00 0.00 0.00 74 1004.3
20260504025045 55 207 1.0 4.0 0.00 0.00 0.00 78 1004.3
20260504024550 55 207 1.0 4.0 0.00 0.00 0.00 79 1004.3
20260504024042 55 194 1.0 4.0 0.00 0.00 0.00 80 1004.3
20260504023542 55 0 0.0 1.0 0.00 0.00 0.00 80 1004.3
20260504023100 55 0 0.0 0.0 0.00 0.00 0.00 78 1004.3
20260504022546 55 0 0.0 0.0 0.00 0.00 0.00 79 1004.2
20260504022045 55 0 0.0 0.0 0.00 0.00 0.00 77 1004.1
20260504021554 56 0 0.0 0.0 0.00 0.00 0.00 75 1004.2
20260504021041 56 0 0.0 0.0 0.00 0.00 0.00 73 1004.1
20260504020544 56 0 0.0 1.0 0.00 0.00 0.00 74 1004.1
20260504020051 57 0 0.0 1.0 0.00 0.00 0.00 77 1004.2
20260504015544 57 0 0.0 0.0 0.00 0.00 0.00 76 1004.1
20260504015044 58 0 0.0 0.0 0.00 0.00 0.00 75 1004.0
20260504014559 58 0 0.0 0.0 0.00 0.00 0.00 70 1004.2
20260504014042 59 0 0.0 0.0 0.00 0.00 0.00 66 1004.2
20260504013542 59 0 0.0 0.0 0.00 0.00 0.00 64 1004.3
20260504013051 59 0 0.0 0.0 0.00 0.00 0.00 67 1004.1
20260504012542 60 0 0.0 0.0 0.00 0.00 0.00 62 1004.0
20260504012043 61 0 0.0 0.0 0.00 0.00 0.00 64 1004.0
20260504011552 61 0 0.0 0.0 0.00 0.00 0.00 55 1004.1
20260504011041 62 0 0.0 0.0 0.00 0.00 0.00 55 1003.9
20260504010541 62 0 0.0 0.0 0.00 0.00 0.00 51 1004.0
20260504010055 62 0 0.0 1.0 0.00 0.00 0.00 51 1004.0
20260504005544 63 0 0.0 2.0 0.00 0.00 0.00 53 1003.9
20260504005044 63 0 0.0 2.0 0.00 0.00 0.00 52 1003.9
20260504004554 63 0 0.0 2.0 0.00 0.00 0.00 51 1003.9
20260504004047 64 0 0.0 1.0 0.00 0.00 0.00 51 1003.9
20260504003546 64 0 0.0 2.0 0.00 0.00 0.00 50 1003.9
20260504003102 64 0 0.0 2.0 0.00 0.00 0.00 49 1004.0
20260504002546 64 207 0.0 6.0 0.00 0.00 0.00 49 1003.9
20260504002047 65 0 0.0 6.0 0.00 0.00 0.00 49 1003.9
20260504001605 65 228 2.0 6.0 0.00 0.00 0.00 48 1003.9
20260504001047 65 0 0.0 7.0 0.00 0.00 0.00 48 1003.9
20260504000546 65 0 1.0 8.0 0.00 0.00 0.00 49 1004.0
20260504000130 65 0 3.0 8.0 0.00 0.00 0.00 48 1003.9
20260503235547 65 217 0.0 5.0 0.00 0.00 0.00 50 1003.8
20260503235045 65 0 1.0 7.0 0.00 0.00 0.00 50 1003.9
20260503234556 65 213 2.0 11.0 0.00 0.00 0.00 49 1004.0
20260503234046 65 0 2.0 11.0 0.00 0.00 0.00 48 1004.0
20260503233546 65 238 1.0 7.0 0.00 0.00 0.00 49 1003.9
20260503233055 65 217 2.0 7.0 0.00 0.00 0.00 49 1004.0
20260503232545 65 202 0.0 7.0 0.00 0.00 0.00 48 1004.0
20260503232045 65 223 1.0 6.0 0.00 0.00 0.00 48 1004.1
20260503231551 65 226 2.0 8.0 0.00 0.00 0.00 49 1004.2